This is the latest recevied weather packets stored in our database for station/object YT6PT-8. If no packets are shown the sender has not sent any weather packets the latest 10 day(s).
| Time | Temp. | Humidity | Pressure | Rain* | Wind** | Luminosity | Snow |
|---|---|---|---|---|---|---|---|
| 1787820332 | 25.56° C | 53% | 1011.3 hPa | 0 mm | 0.45 m/s, 180° | - | - |
| 1787820052 | 25.56° C | 53% | 1011.3 hPa | 0 mm | 0.45 m/s, 180° | - | - |
| 1787819759 | 25.56° C | 54% | 1011.3 hPa | 0 mm | 1.34 m/s, 158° | - | - |
| 1787819449 | 25.56° C | 54% | 1011.3 hPa | 0 mm | 1.34 m/s, 158° | - | - |
| 1787819132 | 25.56° C | 53% | 1011.3 hPa | 0 mm | 0.45 m/s, 158° | - | - |
| 1787818832 | 25.56° C | 53% | 1011.3 hPa | 0 mm | 0.45 m/s, 158° | - | - |
| 1787818531 | 25° C | 55% | 1011.1 hPa | 0 mm | 0 m/s | - | - |
| 1787818232 | 25° C | 55% | 1011.1 hPa | 0 mm | 0 m/s | - | - |
| 1787817932 | 24.44° C | 57% | 1011.1 hPa | 0 mm | 0.45 m/s, 158° | - | - |
| 1787817632 | 24.44° C | 57% | 1011.1 hPa | 0 mm | 0.45 m/s, 158° | - | - |
| 1787817332 | 24.44° C | 60% | 1011.4 hPa | 0 mm | 0.89 m/s, 90° | - | - |
| 1787817033 | 24.44° C | 60% | 1011.4 hPa | 0 mm | 0.89 m/s, 90° | - | - |
| 1787816732 | 23.89° C | 61% | 1011.5 hPa | 0 mm | 2.24 m/s, 158° | - | - |
| 1787816451 | 23.89° C | 61% | 1011.5 hPa | 0 mm | 2.24 m/s, 158° | - | - |
| 1787816133 | 23.89° C | 61% | 1011.5 hPa | 0 mm | 2.68 m/s, 158° | - | - |
| 1787815840 | 23.89° C | 61% | 1011.5 hPa | 0 mm | 2.68 m/s, 158° | - | - |
| 1787815532 | 25° C | 61% | 1011.4 hPa | 0 mm | 0.45 m/s, 158° | - | - |
| 1787815233 | 25° C | 61% | 1011.4 hPa | 0 mm | 0.45 m/s, 158° | - | - |
| 1787814932 | 25.56° C | 58% | 1011.2 hPa | 0 mm | 0.89 m/s, 112° | - | - |
| 1787814632 | 25.56° C | 58% | 1011.2 hPa | 0 mm | 0.89 m/s, 112° | - | - |
| 1787814333 | 25.56° C | 58% | 1011.2 hPa | 0 mm | 0.89 m/s, 112° | - | - |
| 1787814039 | 25.56° C | 58% | 1011.2 hPa | 0 mm | 0.89 m/s, 112° | - | - |
| 1787813731 | 25.56° C | 56% | 1011.1 hPa | 0 mm | 0 m/s | - | - |
| 1787813451 | 25.56° C | 56% | 1011.1 hPa | 0 mm | 0 m/s | - | - |
| 1787813150 | 25° C | 58% | 1011.2 hPa | 0 mm | 0 m/s | - | - |
* Rain latest hour (hover to see other rain measurements)
** Current wind speed in m/s (hover to see current wind gust speed)